Date String (YYYY-MM-DD hh:mm:ss) UTC,Instrument flags,absolute air pressure of the measurement (hPa),sample flow rate (lpm),inlet stack bypass flow (lpm),air temperature of the measurement (°C),ambient temperature measured by the external sensor (°C),aerosol sample conditioner tube jacket temperature (°C),OPC LED temperature (°C),internal box temperature (°C),relative humidity of the measurement (%),span deviation,mass concentration of particles derived from Lorenz-Mie calculation of OPC scattering (μg/m³),mass concentration of particles derived from Lorenz-Mie calculation of OPC scattering (μg/m³),mass concentration of particles derived from Lorenz-Mie calculation of OPC scattering (μg/m³)
DateTimeUTC,F1_M11,P_M11,Q1_M11,Q2_M11,T1_M11,T2_M11,T3_M11,T4_M11,T5_M11,U1_M11,ZSPAN_M11,X0_M11,X2_M11,X1_M11
2023-10-29 00:00:00,SystemResetWarning,0832.7,4.99,000.00,021.3,020.0,000.0,029.7,022.6,16.1,0000.0,0009.77,0006.03,0005.54
2023-10-29 00:01:00,SystemResetWarning,0832.7,4.99,000.00,021.2,019.9,000.0,029.7,022.5,16.1,0000.0,0009.54,0006.04,0005.58
2023-10-29 00:02:00,SystemResetWarning,0832.9,5.01,000.00,021.2,019.9,000.0,029.7,022.5,16.2,0000.0,0009.54,0006.07,0005.61
2023-10-29 00:03:00,SystemResetWarning,0833.0,5.01,000.00,021.2,019.8,000.0,029.7,022.5,16.2,0000.0,0009.60,0006.09,0005.61
2023-10-29 00:04:00,SystemResetWarning,0832.8,5.01,000.00,021.2,019.8,000.0,029.7,022.5,16.2,0000.0,0009.68,0006.14,0005.65
2023-10-29 00:05:00,SystemResetWarning,0832.8,5.00,000.00,021.1,019.8,000.0,029.6,022.5,16.2,0000.0,0009.80,0006.18,0005.66
2023-10-29 00:06:00,SystemResetWarning,0832.8,4.99,000.00,021.1,019.8,000.0,029.6,022.6,16.2,0000.0,0009.98,0006.23,0005.67
2023-10-29 00:07:00,SystemResetWarning,0832.8,4.99,000.00,021.1,019.7,000.0,029.6,022.6,16.2,0000.0,0010.10,0006.27,0005.69
2023-10-29 00:08:00,SystemResetWarning,0833.1,5.00,000.00,021.1,019.7,000.0,029.6,022.6,16.1,0000.0,0009.97,0006.28,0005.68
2023-10-29 00:09:00,SystemResetWarning,0833.4,5.01,000.00,021.1,019.7,000.0,029.6,022.6,16.1,0000.0,0009.62,0006.28,0005.67
2023-10-29 00:10:00,SystemResetWarning,0833.4,5.01,000.00,021.1,019.8,000.0,029.6,022.6,16.1,0000.0,0009.58,0006.26,0005.64
2023-10-29 00:11:00,SystemResetWarning,0833.4,4.99,000.00,021.1,019.8,000.0,029.6,022.6,16.1,0000.0,0009.66,0006.26,0005.63
2023-10-29 00:12:00,SystemResetWarning,0833.4,4.99,000.00,021.1,019.8,000.0,029.6,022.6,16.1,0000.0,0009.68,0006.25,0005.60
2023-10-29 00:13:00,SystemResetWarning,0833.0,5.01,000.00,021.2,020.3,000.0,029.5,022.9,16.0,0000.0,0009.61,0006.23,0005.57
2023-10-29 00:14:00,SystemResetWarning,0833.0,5.02,000.00,021.3,021.2,000.0,029.5,023.3,15.9,0000.0,0009.57,0006.22,0005.57
2023-10-29 00:15:00,SystemResetWarning,0833.0,4.99,000.00,021.4,021.4,000.0,029.5,023.2,15.8,0000.0,0009.60,0006.21,0005.54
2023-10-29 00:16:00,SystemResetWarning,0833.0,4.99,000.00,021.4,021.2,000.0,029.6,023.1,15.8,0000.0,0009.54,0006.19,0005.53
2023-10-29 00:17:00,SystemResetWarning,0833.0,5.01,000.00,021.4,021.0,000.0,029.6,023.1,15.8,0000.0,0009.41,0006.16,0005.53
2023-10-29 00:18:00,SystemResetWarning,0833.0,5.01,000.00,021.4,020.9,000.0,029.6,023.0,15.8,0000.0,0009.27,0006.11,0005.52
2023-10-29 00:19:00,SystemResetWarning,0833.0,5.00,000.00,021.4,020.7,000.0,029.7,023.0,15.8,0000.0,0009.19,0006.10,0005.53
2023-10-29 00:20:00,SystemResetWarning,0832.9,5.00,000.00,021.4,020.6,000.0,029.7,023.0,15.7,0000.0,0009.21,0006.10,0005.53
2023-10-29 00:21:00,SystemResetWarning,0833.0,5.00,000.00,021.4,020.5,000.0,029.7,023.0,15.8,0000.0,0009.26,0006.10,0005.52
2023-10-29 00:22:00,SystemResetWarning,0833.0,5.00,000.00,021.4,020.4,000.0,029.7,022.9,15.8,0000.0,0009.20,0006.10,0005.53
2023-10-29 00:23:00,SystemResetWarning,0832.9,4.99,000.00,021.4,020.3,000.0,029.7,022.9,15.8,0000.0,0009.12,0006.11,0005.53
2023-10-29 00:24:00,SystemResetWarning,0833.1,5.00,000.00,021.4,020.2,000.0,029.7,022.9,15.8,0000.0,0009.23,0006.15,0005.54
2023-10-29 00:25:00,SystemResetWarning,0833.0,5.01,000.00,021.4,020.2,000.0,029.7,022.9,15.8,0000.0,0009.19,0006.15,0005.54
2023-10-29 00:26:00,SystemResetWarning,0833.2,5.00,000.00,021.4,020.1,000.0,029.7,022.9,15.8,0000.2,0009.11,0006.11,0005.55
2023-10-29 00:27:00,SystemResetWarning,0833.1,5.00,000.00,021.4,020.1,000.0,029.7,022.9,15.8,0000.2,0009.03,0006.07,0005.54
2023-10-29 00:28:00,SystemResetWarning,0833.1,5.00,000.00,021.4,020.1,000.0,029.7,022.8,15.8,-000.0,0009.01,0006.07,0005.55
2023-10-29 00:29:00,SystemResetWarning,0833.2,5.00,000.00,021.4,020.1,000.0,029.7,022.9,15.8,-000.8,0009.07,0006.14,0005.58
2023-10-29 00:30:00,SystemResetWarning,0833.2,4.99,000.00,021.4,020.1,000.0,029.7,022.9,15.9,-000.1,0009.14,0006.20,0005.64
2023-10-29 00:31:00,SystemResetWarning,0833.2,5.00,000.00,021.4,020.0,000.0,029.7,022.8,15.9,-000.2,0009.11,0006.25,0005.73
2023-10-29 00:32:00,SystemResetWarning,0833.2,5.01,000.00,021.3,020.0,000.0,029.7,022.8,15.9,0000.2,0009.26,0006.34,0005.81
2023-10-29 00:33:00,SystemResetWarning,0833.3,5.01,000.00,021.3,020.0,000.0,029.7,022.8,15.9,0000.2,0009.34,0006.40,0005.87
2023-10-29 00:34:00,SystemResetWarning,0833.3,5.00,000.00,021.3,019.9,000.0,029.7,022.8,15.9,-000.2,0009.45,0006.43,0005.90
2023-10-29 00:35:00,SystemResetWarning,0833.3,5.00,000.00,021.3,019.9,000.0,029.7,022.7,15.9,-000.1,0009.42,0006.40,0005.90
2023-10-29 00:36:00,SystemResetWarning,0833.4,4.99,000.00,021.3,019.9,000.0,029.7,022.7,15.9,-000.8,0009.46,0006.39,0005.92
2023-10-29 00:37:00,SystemResetWarning,0833.4,5.00,000.00,021.3,019.9,000.0,029.7,022.7,15.9,0000.0,0009.45,0006.40,0005.93
2023-10-29 00:38:00,SystemResetWarning,0833.4,4.99,000.00,021.3,019.9,000.0,029.7,022.7,15.9,0000.0,0009.45,0006.43,0005.95
2023-10-29 00:39:00,SystemResetWarning,0833.4,4.99,000.00,021.3,019.9,000.0,029.7,022.7,15.9,0000.0,0009.47,0006.45,0005.97
2023-10-29 00:40:00,SystemResetWarning,0833.4,5.00,000.00,021.2,019.9,000.0,029.7,022.7,15.9,0000.0,0009.37,0006.41,0005.97
2023-10-29 00:41:00,SystemResetWarning,0833.4,5.00,000.00,021.2,019.9,000.0,029.6,022.7,15.9,0000.0,0009.26,0006.34,0005.90
2023-10-29 00:42:00,SystemResetWarning,0833.4,5.00,000.00,021.2,019.9,000.0,029.6,022.7,15.9,0000.0,0009.26,0006.28,0005.82
2023-10-29 00:43:00,SystemResetWarning,0833.4,5.00,000.00,021.2,019.9,000.0,029.6,022.7,15.9,0000.0,0009.11,0006.18,0005.74
2023-10-29 00:44:00,SystemResetWarning,0833.4,5.00,000.00,021.2,019.9,000.0,029.6,022.7,15.9,0000.0,0009.02,0006.10,0005.67
2023-10-29 00:45:00,SystemResetWarning,0833.4,5.00,000.00,021.2,019.9,000.0,029.6,022.7,15.9,0000.0,0008.83,0006.03,0005.64
2023-10-29 00:46:00,SystemResetWarning,0833.4,5.00,000.00,021.2,019.8,000.0,029.6,022.7,15.9,0000.0,0008.86,0006.04,0005.63
2023-10-29 00:47:00,SystemResetWarning,0833.4,5.01,000.00,021.2,019.8,000.0,029.6,022.7,16.0,0000.0,0009.01,0006.01,0005.61
2023-10-29 00:48:00,SystemResetWarning,0833.4,5.00,000.00,021.2,019.9,000.0,029.6,022.7,16.0,0000.0,0008.99,0005.97,0005.58
2023-10-29 00:49:00,SystemResetWarning,0833.6,5.00,000.00,021.2,019.9,000.0,029.6,022.6,16.0,0000.0,0008.99,0005.96,0005.56
2023-10-29 00:50:00,SystemResetWarning,0833.5,4.99,000.00,021.2,019.9,000.0,029.6,022.7,16.0,0000.0,0008.95,0005.92,0005.52
2023-10-29 00:51:00,SystemResetWarning,0833.6,5.00,000.00,021.3,020.3,000.0,029.5,023.0,15.9,0000.0,0008.94,0005.90,0005.50
2023-10-29 00:52:00,SystemResetWarning,0833.7,5.01,000.00,021.4,021.2,000.0,029.5,023.3,15.9,0000.0,0008.90,0005.87,0005.48
2023-10-29 00:53:00,SystemResetWarning,0833.7,4.98,000.00,021.5,021.3,000.0,029.6,023.3,15.8,0000.0,0008.86,0005.85,0005.47
2023-10-29 00:54:00,SystemResetWarning,0833.7,5.00,000.00,021.5,021.2,000.0,029.6,023.2,15.8,0000.0,0008.81,0005.83,0005.46
2023-10-29 00:55:00,SystemResetWarning,0833.7,5.01,000.00,021.5,021.1,000.0,029.7,023.1,15.8,0000.0,0008.68,0005.80,0005.45
2023-10-29 00:56:00,SystemResetWarning,0833.7,5.01,000.00,021.5,020.9,000.0,029.7,023.1,15.8,0000.0,0008.66,0005.79,0005.45
2023-10-29 00:57:00,SystemResetWarning,0833.7,4.99,000.00,021.5,020.8,000.0,029.7,023.1,15.8,0000.0,0008.66,0005.79,0005.44
2023-10-29 00:58:00,SystemResetWarning,0833.7,4.99,000.00,021.5,020.7,000.0,029.7,023.1,15.8,0000.0,0008.63,0005.83,0005.43
2023-10-29 00:59:00,SystemResetWarning,0833.7,4.99,000.00,021.5,020.6,000.0,029.7,023.0,15.8,0000.0,0008.50,0005.84,0005.43
